Location: Beaver Brook Station
(42.3793°N, 71.2203°W)
Time: 07:09:19
(UTC+00:00)

COSMO-SKYMED 1 - Pass Details

Date: 29 October 2020
Orbit: 621 x 623 km, 97.9° (Epoch: 24 November)

Event Time Altitude Azimuth Distance (km) Brightness Sun altitude
Rises 23:30:09 0° 4° (N) 2,912 6.0 -20.6°
Reaches altitude 10° 23:32:29 10° 356° (N) 2,001 5.2 -21.0°
Maximum altitude 23:36:27 36° 290° (WNW) 996 4.1 -21.8°
Drops below altitude 10° 23:40:23 10° 224° (SW) 1,986 5.7 -22.5°
Sets 23:42:41 0° 216° (SW) 2,887 6.5 -22.9°
